Location: Rumah Dana
(3.1167°N, 113.0167°E)
Time: 04:29:04
(UTC+00:00)

Cosmos 540 Rocket - Pass Details

Date: 20 January 2026
Orbit: 736 x 747 km, 74.1° (Epoch: 10 February)

Event Time Altitude Azimuth Distance (km) Brightness Sun altitude
Rises 10:52:33 0° 178° (S) 3,177 7.0 -4.3°
Reaches altitude 10° 10:55:02 10° 171° (S) 2,251 6.1 -4.8°
Maximum altitude 10:59:47 40° 102° (ESE) 1,083 3.9 -6.0°
Drops below altitude 10° 11:04:31 10° 33° (NNE) 2,237 5.4 -7.1°
Sets 11:06:58 0° 26° (NNE) 3,156 6.3 -7.6°
